When you browse on this site, cookies collect data to enhance your experience and personalize the content and advertising you see.
Visit our Privacy Policy to learn more. By continuing to use the site, you agree to this use of cookies and data.
  • In United Kingdom
  • List of Countries
  • For 7 days
  • Water Temperature
  • Satellite Maps
  • Weather Map
  • Weather Widgets
  • user-avatar
    Login

    Hourly Weather Pivni

    Today, 21 June, Friday

    Time Temperature Precipitation Wind Pressure Humidity
    00:00 +20°C° 0 mm 2 mps 743 mmHg 89%
    01:00 +20°C° 0 mm 2 mps 744 mmHg 89%
    02:00 +20°C° 0 mm 2 mps 744 mmHg 89%
    03:00 +19°C° 0 mm 2 mps 744 mmHg 89%
    04:00 +19°C° 0 mm 2 mps 744 mmHg 89%
    05:00 +19°C° 0 mm 2 mps 744 mmHg 88%
    06:00 +21°C° 0 mm 2 mps 744 mmHg 84%
    07:00 +23°C° 0 mm 2 mps 744 mmHg 80%
    08:00 +25°C° 0 mm 3 mps 744 mmHg 76%
    09:00 +26°C° 0.1 mm 3 mps 744 mmHg 73%
    10:00 +27°C° 0.1 mm 3 mps 744 mmHg 69%
    11:00 +29°C° 0.1 mm 3 mps 744 mmHg 65%
    12:00 +29°C° 0.1 mm 3 mps 744 mmHg 63%
    13:00 +29°C° 0.1 mm 3 mps 744 mmHg 61%
    14:00 +30°C° 0.1 mm 3 mps 744 mmHg 58%
    15:00 +30°C° 0.1 mm 3 mps 744 mmHg 60%
    16:00 +29°C° 0.1 mm 3 mps 744 mmHg 62%
    17:00 +29°C° 0.1 mm 2 mps 744 mmHg 64%
    18:00 +27°C° 0 mm 2 mps 744 mmHg 67%
    19:00 +26°C° 0 mm 2 mps 744 mmHg 70%
    20:00 +24°C° 0 mm 2 mps 744 mmHg 73%
    21:00 +23°C° 0 mm 2 mps 744 mmHg 73%
    22:00 +21°C° 0 mm 2 mps 744 mmHg 74%
    23:00 +20°C° 0 mm 2 mps 745 mmHg 74%

    Tomorrow, 22 June, Saturday

    Time Temperature Precipitation Wind Pressure Humidity
    00:00 +20°C° 0 mm 2 mps 745 mmHg 75%
    01:00 +20°C° 0 mm 2 mps 745 mmHg 76%
    02:00 +20°C° 0 mm 1 mps 744 mmHg 77%
    03:00 +20°C° 0 mm 1 mps 745 mmHg 78%
    04:00 +20°C° 0 mm 1 mps 745 mmHg 79%
    05:00 +20°C° 0 mm 1 mps 745 mmHg 80%
    06:00 +22°C° 0 mm 1 mps 745 mmHg 75%
    07:00 +24°C° 0 mm 1 mps 745 mmHg 70%
    08:00 +26°C° 0 mm 1 mps 745 mmHg 66%
    09:00 +27°C° 0 mm 2 mps 745 mmHg 64%
    10:00 +28°C° 0 mm 2 mps 745 mmHg 62%
    11:00 +29°C° 0 mm 3 mps 745 mmHg 60%
    12:00 +30°C° 0 mm 3 mps 745 mmHg 57%
    13:00 +30°C° 0 mm 3 mps 745 mmHg 55%
    14:00 +31°C° 0 mm 3 mps 745 mmHg 52%
    15:00 +31°C° 0 mm 2 mps 745 mmHg 54%
    16:00 +30°C° 0 mm 2 mps 745 mmHg 57%
    17:00 +30°C° 0 mm 1 mps 744 mmHg 59%
    18:00 +28°C° 0 mm 2 mps 745 mmHg 64%
    19:00 +26°C° 0 mm 2 mps 745 mmHg 69%
    20:00 +24°C° 0 mm 2 mps 745 mmHg 75%
    21:00 +23°C° 0 mm 2 mps 745 mmHg 74%
    22:00 +23°C° 0 mm 2 mps 745 mmHg 74%
    23:00 +21°C° 0 mm 2 mps 745 mmHg 74%

    Day after tomorrow, 23 June, Sunday

    Time Temperature Precipitation Wind Pressure Humidity
    00:00 +21°C° 0 mm 2 mps 745 mmHg 75%
    01:00 +21°C° 0 mm 1 mps 745 mmHg 77%
    02:00 +21°C° 0 mm 1 mps 745 mmHg 79%
    03:00 +21°C° 0 mm 1 mps 745 mmHg 81%
    04:00 +21°C° 0 mm 1 mps 745 mmHg 83%
    05:00 +21°C° 0 mm 1 mps 745 mmHg 85%
    06:00 +21°C° 0 mm 2 mps 745 mmHg 81%
    07:00 +24°C° 0 mm 2 mps 746 mmHg 76%
    08:00 +26°C° 0 mm 2 mps 746 mmHg 72%
    09:00 +27°C° 0.5 mm 2 mps 746 mmHg 69%
    10:00 +28°C° 0.5 mm 3 mps 746 mmHg 66%
    11:00 +29°C° 0.5 mm 4 mps 746 mmHg 63%
    12:00 +29°C° 0.1 mm 3 mps 746 mmHg 60%
    13:00 +30°C° 0.1 mm 3 mps 746 mmHg 56%
    14:00 +30°C° 0.1 mm 2 mps 746 mmHg 53%
    15:00 +30°C° 0 mm 2 mps 746 mmHg 56%
    16:00 +30°C° 0 mm 2 mps 746 mmHg 60%
    17:00 +30°C° 0 mm 2 mps 745 mmHg 63%
    18:00 +28°C° 0.1 mm 2 mps 745 mmHg 66%
    19:00 +26°C° 0.1 mm 2 mps 746 mmHg 69%
    20:00 +24°C° 0.1 mm 2 mps 746 mmHg 73%
    21:00 +23°C° 0 mm 2 mps 746 mmHg 73%
    22:00 +21°C° 0 mm 2 mps 746 mmHg 74%
    23:00 +21°C° 0 mm 2 mps 746 mmHg 75%

    24 June, Monday

    Time Temperature Precipitation Wind Pressure Humidity
    00:00 +20°C° 0 mm 2 mps 746 mmHg 78%
    01:00 +20°C° 0 mm 2 mps 747 mmHg 80%
    02:00 +19°C° 0 mm 2 mps 747 mmHg 83%
    03:00 +19°C° 0 mm 2 mps 747 mmHg 84%
    04:00 +19°C° 0 mm 2 mps 747 mmHg 85%
    05:00 +19°C° 0 mm 2 mps 747 mmHg 85%
    06:00 +21°C° 0 mm 2 mps 747 mmHg 81%
    07:00 +24°C° 0 mm 2 mps 748 mmHg 77%
    08:00 +26°C° 0 mm 2 mps 748 mmHg 72%
    09:00 +27°C° 0 mm 3 mps 748 mmHg 68%
    10:00 +28°C° 0 mm 3 mps 748 mmHg 64%
    11:00 +29°C° 0 mm 3 mps 748 mmHg 60%
    12:00 +29°C° 0.4 mm 3 mps 748 mmHg 60%
    13:00 +30°C° 0.4 mm 3 mps 748 mmHg 59%
    14:00 +30°C° 0.4 mm 3 mps 748 mmHg 59%
    15:00 +29°C° 1 mm 3 mps 748 mmHg 66%
    16:00 +28°C° 1 mm 4 mps 748 mmHg 72%
    17:00 +27°C° 1 mm 4 mps 748 mmHg 78%
    18:00 +26°C° 0.3 mm 3 mps 748 mmHg 81%
    19:00 +25°C° 0.3 mm 3 mps 749 mmHg 84%
    20:00 +24°C° 0.3 mm 3 mps 749 mmHg 88%
    21:00 +22°C° 0 mm 3 mps 749 mmHg 90%
    22:00 +21°C° 0 mm 3 mps 749 mmHg 92%
    23:00 +21°C° 0 mm 3 mps 750 mmHg 94%

    25 June, Tuesday

    Time Temperature Precipitation Wind Pressure Humidity
    00:00 +20°C° 0 mm 3 mps 750 mmHg 95%
    01:00 +20°C° 0 mm 3 mps 750 mmHg 96%
    02:00 +20°C° 0 mm 3 mps 750 mmHg 96%
    03:00 +19°C° 0 mm 3 mps 750 mmHg 96%
    04:00 +19°C° 0 mm 4 mps 750 mmHg 95%
    05:00 +19°C° 0 mm 4 mps 750 mmHg 95%
    06:00 +20°C° 0 mm 4 mps 751 mmHg 90%
    07:00 +21°C° 0 mm 4 mps 751 mmHg 85%
    08:00 +22°C° 0 mm 4 mps 751 mmHg 80%
    09:00 +23°C° 0 mm 4 mps 751 mmHg 75%
    10:00 +25°C° 0 mm 5 mps 752 mmHg 69%
    11:00 +26°C° 0 mm 5 mps 752 mmHg 63%
    12:00 +26°C° 0 mm 5 mps 752 mmHg 61%
    13:00 +26°C° 0 mm 4 mps 751 mmHg 59%
    14:00 +26°C° 0 mm 4 mps 751 mmHg 56%
    15:00 +26°C° 0 mm 4 mps 751 mmHg 59%
    16:00 +26°C° 0 mm 4 mps 751 mmHg 61%
    17:00 +26°C° 0 mm 3 mps 751 mmHg 64%
    18:00 +24°C° 0 mm 3 mps 751 mmHg 69%
    19:00 +21°C° 0 mm 2 mps 751 mmHg 74%
    20:00 +20°C° 0 mm 2 mps 751 mmHg 80%
    21:00 +19°C° 0 mm 2 mps 751 mmHg 82%
    22:00 +19°C° 0 mm 1 mps 751 mmHg 84%
    23:00 +18°C° 0 mm 1 mps 751 mmHg 86%

    26 June, Wednesday

    Time Temperature Precipitation Wind Pressure Humidity
    00:00 +18°C° 0 mm 1 mps 751 mmHg 87%
    01:00 +16°C° 0 mm 1 mps 751 mmHg 87%
    02:00 +16°C° 0 mm 1 mps 750 mmHg 88%
    03:00 +16°C° 0 mm 1 mps 750 mmHg 88%
    04:00 +16°C° 0 mm 1 mps 750 mmHg 88%
    05:00 +16°C° 0 mm 1 mps 750 mmHg 87%
    06:00 +19°C° 0 mm 1 mps 750 mmHg 83%
    07:00 +19°C° 0 mm 2 mps 750 mmHg 78%
    08:00 +21°C° 0 mm 2 mps 750 mmHg 74%
    09:00 +23°C° 0 mm 2 mps 749 mmHg 69%
    10:00 +24°C° 0 mm 2 mps 749 mmHg 65%
    11:00 +25°C° 0 mm 2 mps 749 mmHg 60%
    12:00 +25°C° 0 mm 3 mps 749 mmHg 58%
    13:00 +26°C° 0 mm 3 mps 748 mmHg 57%
    14:00 +26°C° 0 mm 3 mps 748 mmHg 55%
    15:00 +25°C° 0.1 mm 3 mps 747 mmHg 63%
    16:00 +22°C° 0.1 mm 3 mps 747 mmHg 71%
    17:00 +20°C° 0.1 mm 3 mps 747 mmHg 80%
    18:00 +20°C° 0 mm 3 mps 747 mmHg 81%
    19:00 +19°C° 0 mm 2 mps 747 mmHg 83%
    20:00 +18°C° 0 mm 2 mps 747 mmHg 84%
    21:00 +18°C° 0 mm 2 mps 747 mmHg 82%
    22:00 +17°C° 0 mm 3 mps 747 mmHg 79%
    23:00 +16°C° 0 mm 3 mps 747 mmHg 77%
    Show more